Location: Saratoga Springs
(43.0831°N, 73.7850°W)
Time: 12:39:31
(UTC-04:00)

Transit 4A - Pass Details

Date: 22 April 2024
Orbit: 871 x 971 km, 66.8° (Epoch: 20 May)

Event Time Altitude Azimuth Distance (km) Brightness Sun altitude
Rises 23:48:24 0° 308° (NW) 3,468 11.7 -32.3°
Reaches altitude 10° 23:52:53 10° 276° (W) 2,534 10.4 -32.5°
Enters shadow 23:54:28 11° 260° (W) 2,444 10.1 -32.6°
